Social login voor leden:

1. METAR EBOS

METAR EBOS 140020Z 19006KT 6000 -RA BKN011 BKN025 05/04 Q0982 TEMPO FEW010 BKN020

2. TAF EBOS

TAF EBOS 140020Z 19006KT 6000 -RA BKN011 BKN025 05/04 Q0982 TEMPO FEW010 BKN020

3. NOTAMS EBOS

Klik hier voor een overzicht van de notams.

Deze pagina promoten

Noordzee Vliegclub - Nieuwpoortsesteenweg 947 8400 Oostende - Tel 059 30 04 79 - Dit e-mailadres wordt beveiligd tegen spambots. JavaScript dient ingeschakeld te zijn om het te bekijken.

 - Copyright 2017